Time,TemperatureF,DewpointF,PressureIn,WindDirection,WindDirectionDegrees,WindSpeedMPH,WindSpeedGustMPH,Humidity,HourlyPrecipIn,Conditions,Clouds,dailyrainin,SoftwareType,DateUTC
2013-03-10 00:06:00,36.0,34.0,29.87,ESE,116,1.0,4.0,92,0.00,,,0.08,weatherlink.com 1.10,2013-03-10 06:06:00,
2013-03-10 00:21:00,35.9,34.0,29.87,SE,128,2.0,3.0,92,0.00,,,0.08,weatherlink.com 1.10,2013-03-10 06:21:00,
2013-03-10 00:37:00,35.7,34.0,29.87,ESE,113,2.0,3.0,92,0.00,,,0.08,weatherlink.com 1.10,2013-03-10 06:37:00,
2013-03-10 00:52:00,36.0,34.0,29.87,ESE,115,3.0,5.0,92,0.01,,,0.09,weatherlink.com 1.10,2013-03-10 06:52:00,
2013-03-10 01:07:00,36.1,34.0,29.87,SE,129,2.0,5.0,92,0.01,,,0.09,weatherlink.com 1.10,2013-03-10 07:07:00,
2013-03-10 01:22:00,36.2,34.0,29.86,SE,138,2.0,5.0,93,0.02,,,0.10,weatherlink.com 1.10,2013-03-10 07:22:00,
2013-03-10 01:37:00,36.5,35.0,29.86,SE,141,2.0,3.0,93,0.03,,,0.11,weatherlink.com 1.10,2013-03-10 07:37:00,
2013-03-10 01:52:00,37.6,36.0,29.87,SE,136,1.0,3.0,93,0.03,,,0.12,weatherlink.com 1.10,2013-03-10 07:52:00,
2013-03-10 03:07:00,38.4,37.0,29.86,SE,144,3.0,7.0,93,0.05,,,0.14,weatherlink.com 1.10,2013-03-10 08:07:00,
2013-03-10 03:37:00,39.4,37.0,29.84,South,181,3.0,5.0,92,0.06,,,0.17,weatherlink.com 1.10,2013-03-10 08:37:00,
2013-03-10 03:52:00,39.6,38.0,29.84,SSE,164,0.0,5.0,92,0.05,,,0.17,weatherlink.com 1.10,2013-03-10 08:52:00,
2013-03-10 04:07:00,39.7,38.0,29.81,SE,138,1.0,3.0,92,0.04,,,0.18,weatherlink.com 1.10,2013-03-10 09:07:00,
2013-03-10 04:22:00,39.6,38.0,29.81,SE,140,0.0,3.0,93,0.04,,,0.19,weatherlink.com 1.10,2013-03-10 09:22:00,
2013-03-10 04:37:00,39.1,37.0,29.81,SE,140,0.0,0.0,93,0.04,,,0.21,weatherlink.com 1.10,2013-03-10 09:37:00,
2013-03-10 04:52:00,38.4,37.0,29.82,SE,140,0.0,3.0,93,0.06,,,0.02,weatherlink.com 1.10,2013-03-10 09:52:00,
2013-03-10 05:07:00,37.4,36.0,29.82,SE,140,1.0,2.0,94,0.06,,,0.03,weatherlink.com 1.10,2013-03-10 10:07:00,
2013-03-10 05:22:00,37.0,36.0,29.82,SE,140,0.0,0.0,94,0.07,,,0.05,weatherlink.com 1.10,2013-03-10 10:22:00,
2013-03-10 05:37:00,36.9,35.0,29.82,SE,140,0.0,1.0,94,0.06,,,0.06,weatherlink.com 1.10,2013-03-10 10:37:00,
2013-03-10 05:52:00,37.2,36.0,29.82,SE,140,0.0,1.0,95,0.05,,,0.07,weatherlink.com 1.10,2013-03-10 10:52:00,
2013-03-10 06:07:00,37.8,37.0,29.82,SE,140,0.0,2.0,95,0.05,,,0.08,weatherlink.com 1.10,2013-03-10 11:07:00,
2013-03-10 06:22:00,37.5,36.0,29.82,SE,140,0.0,0.0,95,0.04,,,0.09,weatherlink.com 1.10,2013-03-10 11:22:00,
2013-03-10 06:37:00,37.5,36.0,29.82,SE,140,0.0,1.0,95,0.04,,,0.10,weatherlink.com 1.10,2013-03-10 11:37:00,
2013-03-10 06:52:00,37.5,36.0,29.82,SE,140,0.0,0.0,95,0.04,,,0.11,weatherlink.com 1.10,2013-03-10 11:52:00,
2013-03-10 07:07:00,37.4,36.0,29.81,SE,140,1.0,2.0,95,0.05,,,0.13,weatherlink.com 1.10,2013-03-10 12:07:00,
2013-03-10 07:22:00,38.5,38.0,29.81,ESE,110,2.0,4.0,96,0.05,,,0.14,weatherlink.com 1.10,2013-03-10 12:22:00,
2013-03-10 07:37:00,39.0,38.0,29.81,East,95,1.0,3.0,96,0.05,,,0.15,weatherlink.com 1.10,2013-03-10 12:37:00,
2013-03-10 07:52:00,39.8,39.0,29.80,SSE,148,1.0,7.0,96,0.05,,,0.16,weatherlink.com 1.10,2013-03-10 12:52:00,
2013-03-10 08:07:00,40.2,39.0,29.79,SE,128,4.0,9.0,96,0.04,,,0.17,weatherlink.com 1.10,2013-03-10 13:07:00,
2013-03-10 08:22:00,39.8,39.0,29.80,SSE,159,2.0,5.0,96,0.03,,,0.17,weatherlink.com 1.10,2013-03-10 13:22:00,
2013-03-10 08:37:00,40.4,39.0,29.82,SSE,155,1.0,4.0,96,0.02,,,0.17,weatherlink.com 1.10,2013-03-10 13:37:00,
2013-03-10 08:52:00,40.8,40.0,29.84,SSW,196,3.0,5.0,96,0.02,,,0.18,weatherlink.com 1.10,2013-03-10 13:52:00,
2013-03-10 09:07:00,41.0,41.0,29.84,SE,136,1.0,5.0,100,0.02,,,0.19,weatherlink.com 1.10,2013-03-10 14:07:00,
2013-03-10 09:22:00,41.1,40.0,29.84,South,188,3.0,5.0,96,0.03,,,0.20,weatherlink.com 1.10,2013-03-10 14:22:00,
2013-03-10 09:37:00,41.0,40.0,29.84,SSE,154,0.0,4.0,96,0.03,,,0.20,weatherlink.com 1.10,2013-03-10 14:37:00,
2013-03-10 09:52:00,40.3,39.0,29.84,SSE,154,0.0,1.0,96,0.03,,,0.21,weatherlink.com 1.10,2013-03-10 14:52:00,
2013-03-10 10:07:00,40.3,39.0,29.84,SSE,154,0.0,0.0,96,0.03,,,0.22,weatherlink.com 1.10,2013-03-10 15:07:00,
2013-03-10 10:22:00,40.6,40.0,29.84,SSE,154,0.0,0.0,97,0.03,,,0.23,weatherlink.com 1.10,2013-03-10 15:22:00,
2013-03-10 10:37:00,41.1,40.0,29.84,SSE,154,0.0,0.0,97,0.03,,,0.23,weatherlink.com 1.10,2013-03-10 15:37:00,
2013-03-10 10:52:00,41.4,41.0,29.85,SSE,154,0.0,2.0,97,0.02,,,0.23,weatherlink.com 1.10,2013-03-10 15:52:00,
2013-03-10 11:07:00,41.2,40.0,29.85,SSE,154,0.0,0.0,97,0.01,,,0.23,weatherlink.com 1.10,2013-03-10 16:07:00,
2013-03-10 11:23:00,41.6,41.0,29.86,SSE,154,0.0,0.0,97,0.00,,,0.23,weatherlink.com 1.10,2013-03-10 16:23:00,
2013-03-10 11:38:00,41.6,41.0,29.86,SSE,154,0.0,0.0,97,0.00,,,0.23,weatherlink.com 1.10,2013-03-10 16:38:00,
2013-03-10 11:53:00,41.6,41.0,29.85,SSE,154,1.0,2.0,97,0.00,,,0.23,weatherlink.com 1.10,2013-03-10 16:53:00,
2013-03-10 12:08:00,41.5,41.0,29.84,SSE,154,0.0,0.0,97,0.01,,,0.24,weatherlink.com 1.10,2013-03-10 17:08:00,
2013-03-10 12:23:00,41.6,41.0,29.82,SSE,154,2.0,3.0,97,0.01,,,0.24,weatherlink.com 1.10,2013-03-10 17:23:00,
2013-03-10 12:38:00,42.0,41.0,29.83,NNE,25,3.0,5.0,97,0.01,,,0.24,weatherlink.com 1.10,2013-03-10 17:38:00,
2013-03-10 12:53:00,41.9,41.0,29.83,NNE,25,2.0,3.0,97,0.01,,,0.24,weatherlink.com 1.10,2013-03-10 17:53:00,
2013-03-10 13:08:00,41.7,41.0,29.83,NE,37,2.0,3.0,97,0.00,,,0.24,weatherlink.com 1.10,2013-03-10 18:08:00,
2013-03-10 13:23:00,41.9,41.0,29.84,NE,37,2.0,3.0,97,0.00,,,0.24,weatherlink.com 1.10,2013-03-10 18:23:00,
2013-03-10 13:38:00,41.7,41.0,29.83,NE,46,0.0,4.0,97,0.00,,,0.24,weatherlink.com 1.10,2013-03-10 18:38:00,
2013-03-10 13:53:00,41.5,41.0,29.83,NE,45,1.0,3.0,97,0.01,,,0.25,weatherlink.com 1.10,2013-03-10 18:53:00,
2013-03-10 14:08:00,41.2,40.0,29.84,ENE,78,1.0,7.0,97,0.02,,,0.26,weatherlink.com 1.10,2013-03-10 19:08:00,
2013-03-10 14:23:00,40.9,40.0,29.82,East,85,3.0,4.0,97,0.04,,,0.28,weatherlink.com 1.10,2013-03-10 19:23:00,
2013-03-10 14:38:00,40.6,40.0,29.82,ENE,76,1.0,4.0,97,0.06,,,0.30,weatherlink.com 1.10,2013-03-10 19:38:00,
2013-03-10 14:53:00,40.0,39.0,29.79,NNE,24,2.0,7.0,97,0.07,,,0.32,weatherlink.com 1.10,2013-03-10 19:53:00,
2013-03-10 15:08:00,40.0,39.0,29.78,East,82,7.0,10.0,97,0.07,,,0.34,weatherlink.com 1.10,2013-03-10 20:08:00,
2013-03-10 15:24:00,39.8,39.0,29.79,ENE,74,5.0,8.0,97,0.07,,,0.35,weatherlink.com 1.10,2013-03-10 20:24:00,
2013-03-10 15:38:00,39.6,39.0,29.79,ENE,78,4.0,7.0,97,0.06,,,0.36,weatherlink.com 1.10,2013-03-10 20:38:00,
2013-03-10 15:53:00,39.3,39.0,29.78,East,84,6.0,9.0,97,0.06,,,0.38,weatherlink.com 1.10,2013-03-10 20:53:00,
2013-03-10 16:08:00,39.1,38.0,29.79,ENE,78,4.0,9.0,97,0.04,,,0.38,weatherlink.com 1.10,2013-03-10 21:08:00,
2013-03-10 16:23:00,39.0,38.0,29.79,ENE,70,5.0,11.0,97,0.04,,,0.39,weatherlink.com 1.10,2013-03-10 21:23:00,
2013-03-10 16:38:00,38.9,38.0,29.77,NNE,29,7.0,11.0,97,0.04,,,0.40,weatherlink.com 1.10,2013-03-10 21:38:00,
2013-03-10 16:53:00,38.7,38.0,29.77,ENE,72,8.0,15.0,97,0.04,,,0.42,weatherlink.com 1.10,2013-03-10 21:53:00,
2013-03-10 17:23:00,37.3,37.0,29.78,East,86,6.0,13.0,97,0.05,,,0.44,weatherlink.com 1.10,2013-03-10 22:23:00,
2013-03-10 17:38:00,36.6,36.0,29.77,East,80,5.0,12.0,97,0.06,,,0.46,weatherlink.com 1.10,2013-03-10 22:38:00,
2013-03-10 17:53:00,36.3,36.0,29.76,NNE,27,5.0,10.0,97,0.05,,,0.47,weatherlink.com 1.10,2013-03-10 22:53:00,
2013-03-10 18:01:00,-999.0,-99.9,0.00,North,-999,-999.0,-999.0,-999,0.00,,,0.00,weatherlink.com 1.10,2013-03-10 23:01:00,
2013-03-10 18:15:00,-999.0,-99.9,29.75,North,-999,-999.0,-999.0,-999,0.00,,,0.00,weatherlink.com 1.10,2013-03-10 23:15:00,
2013-03-10 18:30:00,36.1,35.0,29.74,ENE,67,10.0,14.0,97,0.01,,,0.01,weatherlink.com 1.10,2013-03-10 23:30:00,
2013-03-10 18:45:00,36.0,35.0,29.74,NE,40,5.0,15.0,97,0.03,,,0.03,weatherlink.com 1.10,2013-03-10 23:45:00,
2013-03-10 19:00:00,36.0,35.0,29.74,ENE,75,5.0,13.0,97,0.04,,,0.04,weatherlink.com 1.10,2013-03-11 00:00:00,
2013-03-10 20:01:00,36.5,36.0,29.71,NE,34,7.0,22.0,97,0.05,,,0.09,weatherlink.com 1.10,2013-03-11 01:01:00,
2013-03-10 21:16:00,36.6,36.0,29.70,South,181,3.0,8.0,97,0.05,,,0.16,weatherlink.com 1.10,2013-03-11 02:16:00,
2013-03-10 21:31:00,36.6,36.0,29.69,NW,306,2.0,15.0,97,0.05,,,0.17,weatherlink.com 1.10,2013-03-11 02:31:00,
2013-03-10 21:46:00,36.6,36.0,29.69,ENE,76,2.0,9.0,97,0.04,,,0.18,weatherlink.com 1.10,2013-03-11 02:46:00,
2013-03-10 22:01:00,36.5,36.0,29.68,NE,34,0.0,1.0,96,0.04,,,0.19,weatherlink.com 1.10,2013-03-11 03:01:00,
2013-03-10 22:16:00,36.6,36.0,29.68,NE,34,0.0,3.0,97,0.04,,,0.20,weatherlink.com 1.10,2013-03-11 03:16:00,
2013-03-10 22:31:00,36.8,36.0,29.68,NE,45,2.0,6.0,97,0.04,,,0.21,weatherlink.com 1.10,2013-03-11 03:31:00,
2013-03-10 22:46:00,36.6,36.0,29.68,North,360,0.0,2.0,97,0.03,,,0.21,weatherlink.com 1.10,2013-03-11 03:46:00,
2013-03-10 23:02:00,36.6,36.0,29.68,North,360,0.0,3.0,97,0.02,,,0.21,weatherlink.com 1.10,2013-03-11 04:02:00,
2013-03-10 23:16:00,36.5,36.0,29.68,North,360,0.0,1.0,97,0.02,,,0.22,weatherlink.com 1.10,2013-03-11 04:16:00,
2013-03-10 23:31:00,36.2,36.0,29.68,North,360,1.0,1.0,97,0.01,,,0.22,weatherlink.com 1.10,2013-03-11 04:31:00,
2013-03-10 23:46:00,36.0,35.0,29.67,West,281,0.0,3.0,97,0.02,,,0.23,weatherlink.com 1.10,2013-03-11 04:46:00,